This is the latest recevied weather packets stored in our database for station/object F4FEB-13. If no packets are shown the sender has not sent any weather packets the latest 10 day(s).
| Time | Temp. | Humidity | Pressure | Rain* | Wind** | Luminosity | Snow |
|---|---|---|---|---|---|---|---|
| 1777817364 | 17.22° C | 40% | 1014.9 hPa | 0 mm | - | - | - |
| 1777817064 | 17.22° C | 41% | 1014.8 hPa | 0 mm | - | - | - |
| 1777816769 | 17.22° C | 40% | 1015 hPa | 0 mm | - | - | - |
| 1777816764 | 17.22° C | 40% | 1015 hPa | 0 mm | - | - | - |
| 1777816464 | 17.22° C | 41% | 1015.2 hPa | 0 mm | - | - | - |
| 1777816164 | 17.22° C | 42% | 1015.4 hPa | 0 mm | - | - | - |
| 1777815864 | 17.22° C | 41% | 1015.4 hPa | 0 mm | - | - | - |
| 1777815564 | 17.22° C | 40% | 1015.5 hPa | 0 mm | - | - | - |
| 1777815264 | 17.22° C | 41% | 1015.6 hPa | 0 mm | - | - | - |
| 1777814964 | 17.22° C | 44% | 1015.6 hPa | 0 mm | - | - | - |
| 1777814664 | 17.22° C | 42% | 1015.6 hPa | 0 mm | - | - | - |
| 1777814364 | 17.22° C | 41% | 1015.7 hPa | 0 mm | - | - | - |
| 1777814064 | 17.78° C | 42% | 1015.8 hPa | 0 mm | - | - | - |
| 1777813764 | 17.78° C | 41% | 1015.9 hPa | 0 mm | - | - | - |
| 1777813464 | 18.33° C | 39% | 1016 hPa | 0 mm | - | - | - |
| 1777813164 | 18.33° C | 41% | 1016 hPa | 0 mm | - | - | - |
| 1777812864 | 18.89° C | 40% | 1015.9 hPa | 0 mm | - | - | - |
| 1777812564 | 18.89° C | 41% | 1015.8 hPa | 0 mm | - | - | - |
| 1777812264 | 19.44° C | 39% | 1015.8 hPa | 0 mm | - | - | - |
| 1777811964 | 19.44° C | 39% | 1015.6 hPa | 0 mm | - | - | - |
| 1777811665 | 19.44° C | 38% | 1015.7 hPa | 0 mm | - | - | - |
| 1777811369 | 19.44° C | 38% | 1015.6 hPa | 0 mm | - | - | - |
| 1777811364 | 19.44° C | 38% | 1015.6 hPa | 0 mm | - | - | - |
| 1777811064 | 19.44° C | 38% | 1015.6 hPa | 0 mm | - | - | - |
| 1777810764 | 19.44° C | 37% | 1015.5 hPa | 0 mm | - | - | - |
* Rain latest hour (hover to see other rain measurements)
** Current wind speed in m/s (hover to see current wind gust speed)